Find Starlink 3669

NORAD ID: 51971 Int'l Des: 2022-025 Owner: SPXS Country: US Constellation: starlink operational
LEOCIRCULAR

实时位置

正在加载3D地球...

关于 Starlink 3669

正在加载描述...

即将过境

Passes for default location (London). Set your location on the main map for personalized predictions.

高度历史

Loading altitude history...

两行轨道根数

1 51971U 22025R 26125.29005029 .00002386 00000-0 88589-4 0 9998
2 51971 53.1613 121.3268 0001392 72.9554 287.1600 15.31716256229682
Epoch: May 5, 2026 • Age: 10 hours

当前状态

高度 475.6 km
速度 7.63 km/s
星下点 49.70°N, 121.98°E
发射日期 Mar 9, 2022
运行时间 4.1 years
类型 internet

技术详情

分类 Payload
质量 297.00 kg
干质量 275.00 kg
总质量 297.00 kg
长度 0.20 m
直径 2.80 m
跨度 9.00 m
形状 Box + pan
制造商 SPXS
平台类型 Starlink
阶段状态 In Orbit
所有者/国家 SPXS/US

Most Searched